Chippewa, MI

9:25 PM EDT on October 19, 2019 (GMT -0400)
Chippewa County International

Weather History for KCIU - August, 2019

Change the Weather History Date:

Saturday, August 17, 2019

  Actual Average Record
Temperature  
Mean Temperature 68 °F -  
Max Temperature 75 °F 75 °F 83 °F (1993)
Min Temperature 62 °F 48 °F 30 °F (1981)
Cooling Degree Days 4    
Growing Degree Days 18 (Base 50)    
Moisture  
Dew Point 63 °F    
Average Humidity 86    
Maximum Humidity 100    
Minimum Humidity 64    
Precipitation  
Precipitation 0.06 in - - ()
Sea Level Pressure  
Sea Level Pressure 29.85 in    
Wind  
Wind Speed 8 mph (NNW)    
Max Wind Speed 12 mph    
Max Gust Speed 16 mph    
Visibility 10 miles    
Events Rain    
Averages and records for this station are not official NWS values.
T = Trace of Precipitation, MM = Missing Value Source: NWS Daily Summary

Daily Weather History Graph

Daily Weather History Graph

Search for Another Location

Airport or City:

Astronomy

Aug. 17, 2019 Rise Set
Actual Time 6:39 AM EDT 8:43 PM EDT
Civil Twilight 6:06 AM EDT 9:16 PM EDT
Nautical Twilight 5:26 AM EDT 9:56 PM EDT
Astronomical Twilight 4:41 AM EDT 10:41 PM EDT
Moon 10:05 PM EDT (8/17) 8:30 AM EDT (8/17)
Length of Visible Light 15h 10m
Length of Day
14h 04m
Waning Gibbous, 96% of the Moon is Illuminated
Aug 17
Waning Gibbous
Aug 23
Last Quarter
Aug 30
New
Sep 5
First Quarter
Sep 14
Full

Hourly Weather History & Observations

Time (EDT) Temp. Dew Point Humidity Pressure Visibility Wind Dir Wind Speed Gust Speed Precip Events Conditions
12:56 AM 64.0 °F 61.0 °F 90% 29.83 in 10.0 mi East 8.1 mph - 0.00 in   Overcast
1:56 AM 64.0 °F 63.0 °F 96% 29.83 in 10.0 mi ESE 9.2 mph - 0.01 in Rain Light Rain
2:36 AM 64.4 °F 62.6 °F 94% 29.83 in 8.0 mi SE 10.4 mph - 0.01 in Rain Rain
2:49 AM 62.6 °F 62.6 °F 100% 29.82 in 9.0 mi SE 9.2 mph - 0.01 in Rain Light Rain
2:56 AM 63.0 °F 63.0 °F 100% 29.81 in 10.0 mi SE 11.5 mph - 0.01 in Rain Light Rain
3:03 AM 62.6 °F 62.6 °F 100% 29.82 in 10.0 mi ESE 11.5 mph - 0.01 in Rain Light Rain
3:12 AM 62.6 °F 62.6 °F 100% 29.82 in 10.0 mi ESE 9.2 mph - 0.01 in Rain Light Rain
3:56 AM 63.0 °F 63.0 °F 100% 29.81 in 10.0 mi SE 6.9 mph - 0.01 in   Overcast
4:25 AM 64.4 °F 62.6 °F 94% 29.81 in 10.0 mi SE 6.9 mph - 0.01 in   Overcast
4:56 AM 64.0 °F 63.0 °F 96% 29.79 in 10.0 mi SE 6.9 mph - 0.01 in   Overcast
5:56 AM 64.0 °F 63.0 °F 96% 29.78 in 10.0 mi East 4.6 mph - 0.01 in   Overcast
6:12 AM 64.4 °F 62.6 °F 94% 29.80 in 10.0 mi East 5.8 mph - N/A   Overcast
6:56 AM 64.0 °F 63.0 °F 96% 29.80 in 10.0 mi East 5.8 mph - N/A   Overcast
7:09 AM 64.4 °F 62.6 °F 94% 29.81 in 10.0 mi East 5.8 mph - N/A   Overcast
7:48 AM 64.4 °F 62.6 °F 94% 29.81 in 9.0 mi NE 5.8 mph - N/A   Overcast
7:56 AM 63.0 °F 63.0 °F 100% 29.81 in 8.0 mi ENE 5.8 mph - 0.01 in   Overcast
8:56 AM 63.0 °F 63.0 °F 100% 29.82 in 4.0 mi ENE 5.8 mph - 0.00 in Rain Light Rain
9:56 AM 64.0 °F 63.0 °F 96% 29.84 in 6.0 mi SE 3.5 mph - 0.00 in   Overcast
10:56 AM 64.9 °F 64.0 °F 97% 29.86 in 10.0 mi West 3.5 mph - N/A   Overcast
11:46 AM 64.4 °F 64.4 °F 100% 29.88 in 6.0 mi WNW 8.1 mph - 0.00 in Rain Light Rain
11:56 AM 64.9 °F 64.0 °F 97% 29.88 in 10.0 mi WNW 9.2 mph - 0.00 in Rain Light Rain
12:06 PM 66.2 °F 64.4 °F 94% 29.89 in 10.0 mi WNW 8.1 mph - N/A   Overcast
12:14 PM 66.2 °F 64.4 °F 94% 29.89 in 10.0 mi WNW 9.2 mph - N/A   Overcast
12:47 PM 69.8 °F 64.4 °F 83% 29.88 in 10.0 mi NW 6.9 mph - N/A   Mostly Cloudy
12:56 PM 70.0 °F 64.0 °F 81% 29.86 in 10.0 mi Variable 5.8 mph - N/A   Mostly Cloudy
1:03 PM 69.8 °F 62.6 °F 78% 29.87 in 10.0 mi West 6.9 mph - N/A   Overcast
1:11 PM 69.8 °F 62.6 °F 78% 29.87 in 10.0 mi NW 6.9 mph - N/A   Mostly Cloudy
1:29 PM 71.6 °F 62.6 °F 73% 29.87 in 10.0 mi NW 10.4 mph - N/A   Mostly Cloudy
1:39 PM 71.6 °F 64.4 °F 78% 29.87 in 10.0 mi NNW 10.4 mph - N/A   Mostly Cloudy
1:47 PM 71.6 °F 62.6 °F 73% 29.87 in 10.0 mi NNW 8.1 mph - N/A   Mostly Cloudy
1:56 PM 72.0 °F 63.0 °F 73% 29.86 in 10.0 mi NNW 9.2 mph 16.1 mph N/A   Mostly Cloudy
2:31 PM 71.6 °F 62.6 °F 73% 29.87 in 10.0 mi NNW 8.1 mph - N/A   Mostly Cloudy
2:56 PM 73.9 °F 63.0 °F 68% 29.86 in 10.0 mi NNW 10.4 mph - N/A   Overcast
3:28 PM 73.4 °F 62.6 °F 69% 29.87 in 10.0 mi NNW 9.2 mph - N/A   Partly Cloudy
3:56 PM 75.0 °F 63.0 °F 66% 29.85 in 10.0 mi North 9.2 mph - N/A   Partly Cloudy
4:56 PM 75.0 °F 62.1 °F 64% 29.88 in 10.0 mi NW 5.8 mph - N/A   Clear
5:56 PM 75.9 °F 63.0 °F 64% 29.88 in 10.0 mi North 4.6 mph - N/A   Clear
6:44 PM 73.4 °F 64.4 °F 73% 29.88 in 10.0 mi SSW 4.6 mph - N/A   Mostly Cloudy
6:56 PM 73.9 °F 63.0 °F 68% 29.87 in 10.0 mi NNW 5.8 mph - N/A   Overcast
7:05 PM 73.4 °F 62.6 °F 69% 29.88 in 10.0 mi Variable 4.6 mph - N/A   Overcast
7:56 PM 73.0 °F 64.0 °F 73% 29.87 in 10.0 mi SSW 3.5 mph - N/A   Mostly Cloudy
8:04 PM 73.4 °F 64.4 °F 73% 29.88 in 10.0 mi SW 4.6 mph - N/A   Mostly Cloudy
8:28 PM 71.6 °F 62.6 °F 73% 29.87 in 10.0 mi SSW 3.5 mph - N/A   Scattered Clouds
8:56 PM 69.1 °F 63.0 °F 81% 29.87 in 10.0 mi SW 3.5 mph - N/A   Clear
9:56 PM 68.0 °F 63.0 °F 84% 29.88 in 10.0 mi WSW 4.6 mph - N/A   Clear
10:56 PM 64.9 °F 62.1 °F 90% 29.88 in 10.0 mi SSW 4.6 mph - N/A   Clear
11:56 PM 64.0 °F 62.1 °F 93% 29.89 in 10.0 mi SSW 5.8 mph - N/A   Clear